Weather Service Report


666 
ASUS41 KBOX 270010
RWRBOX

REGIONAL WEATHER ROUNDUP
NATIONAL WEATHER SERVICE TAUNTON MA
800 PM EDT SUN APR 26 2015

NOTE:  "FAIR" INDICATES FEW OR NO CLOUDS BELOW 12,000 FEET WITH NO 
SIGNIFICANT WEATHER AND/OR OBSTRUCTIONS TO VISIBILITY.  THE FOLLOWING 
OBSERVATION LOCATIONS DO NOT REPORT PRESENT WEATHER...PROVINCETOWN...
SMITHFIELD...BLOCK ISLAND...KEENE...AND OXFORD.

MAZALL-270100-
EASTERN MASSACHUSETTS
  
CITY           SKY/WX    TMP DP  RH WIND       PRES   REMARKS
BOSTON         CLOUDY    51  36  56 CALM      29.63S                  
6HR MIN TEMP:  47; 6HR MAX TEMP:  56;                                

BEVERLY        CLOUDY    46  37  71 SE5       29.62R                  
LAWRENCE       CLOUDY    53  30  41 NW5       29.64R                  
BEDFORD        CLOUDY    50  30  46 W3        29.62R                  
BLUE HILL        N/A     50  30  46 NW8       29.61R                  
NORWOOD        CLOUDY    53  30  41 NW3       29.63R                  
MARSHFIELD     CLOUDY    48  39  71 CALM      29.64S                  
PLYMOUTH       CLOUDY    48  40  73 S5        29.63R                  
TAUNTON        CLOUDY    51  37  58 CALM      29.62S                  
NEW BEDFORD    CLOUDY    48  37  65 SW5       29.63R                  
$$

MAZALL-270100-
CAPE COD AND THE ISLANDS
  
CITY           SKY/WX    TMP DP  RH WIND       PRES   REMARKS
FALMOUTH       CLOUDY    46  34  61 SW7       29.64R                  
HYANNIS        CLOUDY    48  33  56 W10       29.62S                  
CHATHAM        CLOUDY    46  36  68 SW3       29.64S                  
PROVINCETOWN   CLOUDY   N/A N/A N/A S5        29.63S                  
NANTUCKET      PTCLDY    43  35  73 W6        29.64S                  
MARTHAS VNYRD  CLOUDY    45  37  73 SW6       29.64S                  
$$
 
MAZALL-270100-
CENTRAL AND WESTERN MASSACHUSETTS
  
CITY           SKY/WX    TMP DP  RH WIND       PRES   REMARKS
WORCESTER      CLOUDY    49  28  44 N6        29.63S                  
6HR MIN TEMP:  49; 6HR MAX TEMP:  53;                                

FITCHBURG      CLOUDY    53  30  41 NW6       29.64R                  
ORANGE         CLOUDY    51  31  46 W3        29.64R                  
SPRINGFIELD    CLOUDY    53  31  43 N7        29.63S                  
WESTFIELD      CLOUDY    54  29  38 NW8       29.64S                  
NORTH ADAMS    CLOUDY    50  29  44 W3        29.66R                  
PITTSFIELD     CLOUDY    47  30  51 W6        29.64S                  
$$
 
RIZALL-270100-
RHODE ISLAND
  
CITY           SKY/WX    TMP DP  RH WIND       PRES   REMARKS
PROVIDENCE     CLOUDY    54  29  38 N6        29.63S                  
6HR MIN TEMP:  54; 6HR MAX TEMP:  58;                                

NEWPORT        CLOUDY    47  37  68 SW6       29.63S                  
BLOCK ISLAND   CLOUDY    46  37  71 SW13      29.64S                  
WESTERLY       CLOUDY    48  39  71 SW3       29.65R                  
$$
 
CTZALL-270100-
CONNECTICUT
  
CITY           SKY/WX    TMP DP  RH WIND       PRES   REMARKS
BRADLEY INTL   CLOUDY    55  29  36 NW8       29.64S                  
6HR MIN TEMP:  55; 6HR MAX TEMP:  60;                                

HARTFORD       CLOUDY    55  28  35 W7        29.65R                  
BRIDGEPORT     CLOUDY    58  29  33 N6        29.66R                  
DANBURY        CLOUDY    54  26  34 NW6       29.67R                  
GROTON         PTCLDY    53  28  38 NW7       29.64R                  
NEW HAVEN      CLOUDY    55  29  36 N3        29.65S                  
CHESTER        NOT AVBL                                               
MERIDEN        CLOUDY    56  28  34 NW7       29.65S                  
WILLIMANTIC    CLOUDY    54  30  40 W5        29.64S                  
OXFORD         CLOUDY    54  28  37 N7        29.67R                  
$$

MEZ002-015-021-024-NHZ003-005-008-011-012-014-VTZ005-008-270100-
NORTHERN NEW ENGLAND
  
CITY           SKY/WX    TMP DP  RH WIND       PRES   REMARKS
PORTLAND ME    CLOUDY    51  38  60 NE5       29.62R                  
6HR MIN TEMP:  51; 6HR MAX TEMP:  56; 6HR PCP: TRACE;                

BANGOR ME      CLOUDY    45  42  89 W5        29.59S                  
CONCORD NH     CLOUDY    51  31  46 N9        29.63R                  
MANCHESTER NH  CLOUDY    54  30  40 N9        29.62R                  
NASHUA NH      CLOUDY    54  32  43 VRB3      29.63S                  
PORTSMOUTH NH  CLOUDY    47  36  65 CALM      29.61R                  
JAFFREY NH     CLOUDY    49  32  52 NW3       29.64R                  
KEENE NH       CLOUDY    52  32  46 NW6       29.64S                  
BURLINGTON VT  MOCLDY    50  33  52 NW3       29.69R                  
MT. WASHINGTON SNOW      23  23 100 N31G41      N/A  VSB 0   WCI   5  
$$

NYZ052-076-270100-
EASTERN NEW YORK
  
CITY           SKY/WX    TMP DP  RH WIND       PRES   REMARKS
ALBANY         MOCLDY    52  31  44 W12       29.68R                  
6HR MIN TEMP:  52; 6HR MAX TEMP:  57;                                

NEW YORK CITY  MOCLDY    57  29  34 VRB3      29.66R                  
6HR MIN TEMP:  57; 6HR MAX TEMP:  61;                                

$$
 
ANZALL-270100-
MARINE OBSERVATIONS
  
STATION/POSITION TIME  TEMP    WIND        PRES    VSBY  WAVE
                       AIR SEA DIR/SP/G                  HT/PER
                 (UTC) (F)     (DEG/KT/KT) (MB)    (MI)  (FT/S)
BOSTON BUOY      2350   44 44  170/  6/  6 1003.2R         1/11
BUZZARDS BAY     2300          220/ 12/ 13 1004.2F
NANTUCKET SOUND  2350   47 46  240/ 10/ 12 1003.5R         1/11
MASS BAY-STELLWA 2304   44 45  150/  6/  8   N/A    1 7/8  1/11
ISLE OF SHOALS   2300   45     180/ 10/ 10 1002.4R
S OF BLOCK IS    2308      42                N/A           1/10
$$

......................KEY.........................
  SKY/WX - SKY CONDITION/PRESENT WEATHER
  TMP    - TEMPERATURE IN FAHRENHEIT
  DWPT   - DEWPOINT IN FAHRENHEIT
  RH     - RELATIVE HUMIDITY IN PERCENT
  WIND   - DIRECTION AND SPEED IN MPH
  PRES   - MEAN SEA LEVEL PRESSURE IN INCHES OF HG
  WCI    - WIND CHILL INDEX
  VSB    - VISIBILITY IN MILES
  HX     - HEAT INDEX
  TC     - TEMPERATURE IN CELSIUS
  VRB    - VARIABLE WIND DIRECTION
  N/A    - NOT AVAILABLE

Return to Home page


Western Regional Climate Center, wrcc@dri.edu